ANA582 RJOM-RJTT

Flight info

Callsign ANA582
Flight time 1h 7m
Altitude 37000
Route SAKAR KRE V37 PADOC Y43 MENUR Y21 AKSEL
Aircraft A321/M-SDE3FGHIRWY/LB1

Departure

Time 2026-05-06 01:13
Airport Matsuyama Airport (RJOM)

Arrival

Time 2026-05-06 02:20
Airport Tokyo Haneda International Airport (RJTT)
Time Latitude Longitude Altitude Speed Heading
2026-05-06 00:53 33.82843 132.70347 19 ft 0 kts 27°
2026-05-06 01:00 33.82831 132.70339 19 ft 3 kts 27°
2026-05-06 01:00 33.82814 132.70329 21 ft 3 kts 27°
2026-05-06 01:00 33.82799 132.70316 20 ft 3 kts 73°
2026-05-06 01:00 33.82798 132.70297 23 ft 0 kts 124°
2026-05-06 01:02 33.82794 132.70304 20 ft 5 kts 124°
2026-05-06 01:02 33.82790 132.70311 19 ft 0 kts 124°
2026-05-06 01:03 33.82788 132.70314 19 ft 4 kts 125°
2026-05-06 01:03 33.82759 132.70354 20 ft 10 kts 136°
2026-05-06 01:03 33.82754 132.70360 19 ft 6 kts 137°
2026-05-06 01:04 33.82719 132.70383 18 ft 5 kts 159°
2026-05-06 01:04 33.82658 132.70399 20 ft 3 kts 169°
2026-05-06 01:06 33.82657 132.70399 19 ft 0 kts 169°
2026-05-06 01:07 33.82657 132.70400 19 ft 0 kts 169°
2026-05-06 01:07 33.82656 132.70400 19 ft 0 kts 169°
2026-05-06 01:08 33.82655 132.70400 19 ft 1 kts 169°
2026-05-06 01:08 33.82613 132.70429 18 ft 14 kts 140°
2026-05-06 01:09 33.82593 132.70451 18 ft 14 kts 133°
2026-05-06 01:09 33.82529 132.70540 18 ft 13 kts 130°
2026-05-06 01:09 33.82470 132.70623 17 ft 13 kts 130°
2026-05-06 01:09 33.82413 132.70702 18 ft 12 kts 130°
2026-05-06 01:10 33.82358 132.70780 19 ft 12 kts 130°
2026-05-06 01:10 33.82306 132.70854 16 ft 11 kts 130°
2026-05-06 01:10 33.82255 132.70925 16 ft 11 kts 130°
2026-05-06 01:10 33.82206 132.70993 16 ft 10 kts 137°
2026-05-06 01:11 33.82143 132.71018 15 ft 9 kts 176°
2026-05-06 01:11 33.82077 132.71002 15 ft 12 kts 205°
2026-05-06 01:11 33.82049 132.70913 14 ft 17 kts 287°
2026-05-06 01:12 33.82075 132.70863 14 ft 0 kts 310°
2026-05-06 01:12 33.82100 132.70828 16 ft 29 kts 310°
2026-05-06 01:12 33.82409 132.70404 16 ft 101 kts 311°
2026-05-06 01:12 33.83013 132.69573 43 ft 151 kts 315°
2026-05-06 01:13 33.83736 132.68623 584 ft 153 kts 315°
2026-05-06 01:13 33.84175 132.67446 1184 ft 158 kts 268°
2026-05-06 01:13 33.83780 132.66243 1764 ft 161 kts 229°
2026-05-06 01:13 33.82774 132.65522 2087 ft 179 kts 188°
2026-05-06 01:14 33.80044 132.66079 2460 ft 223 kts 166°
2026-05-06 01:14 33.78437 132.66526 2723 ft 249 kts 166°
2026-05-06 01:14 33.76721 132.66996 3523 ft 255 kts 166°
2026-05-06 01:15 33.74979 132.67463 4470 ft 258 kts 167°
2026-05-06 01:15 33.73218 132.67951 5417 ft 262 kts 164°
2026-05-06 01:15 33.71597 132.69011 6247 ft 272 kts 140°
2026-05-06 01:15 33.70500 132.70893 7007 ft 284 kts 112°
2026-05-06 01:16 33.70100 132.73249 7831 ft 289 kts 99°
2026-05-06 01:16 33.69816 132.75680 8702 ft 292 kts 99°
2026-05-06 01:16 33.69536 132.78113 9552 ft 296 kts 99°
2026-05-06 01:16 33.69250 132.80578 10306 ft 303 kts 99°
2026-05-06 01:17 33.68941 132.83179 10570 ft 326 kts 99°
2026-05-06 01:17 33.68604 132.85970 10788 ft 350 kts 99°
2026-05-06 01:17 33.68243 132.88953 11049 ft 370 kts 99°
2026-05-06 01:17 33.67870 132.92041 11621 ft 378 kts 99°
2026-05-06 01:18 33.67482 132.95228 12317 ft 383 kts 99°
2026-05-06 01:18 33.67092 132.98413 13029 ft 388 kts 99°
2026-05-06 01:18 33.66698 133.01645 13741 ft 393 kts 99°
2026-05-06 01:18 33.66301 133.04914 14372 ft 398 kts 99°
2026-05-06 01:19 33.65902 133.08220 14998 ft 402 kts 100°
2026-05-06 01:19 33.65496 133.11561 15625 ft 407 kts 100°
2026-05-06 01:19 33.65081 133.14938 16208 ft 412 kts 100°
2026-05-06 01:19 33.64658 133.18353 16806 ft 416 kts 101°
2026-05-06 01:20 33.64225 133.21823 17386 ft 421 kts 101°
2026-05-06 01:20 33.63797 133.25256 17942 ft 425 kts 101°
2026-05-06 01:20 33.63353 133.28834 18496 ft 430 kts 101°
2026-05-06 01:20 33.62907 133.32398 18936 ft 436 kts 102°
2026-05-06 01:21 33.62447 133.36074 19377 ft 442 kts 102°
2026-05-06 01:21 33.61987 133.39762 19803 ft 448 kts 102°
2026-05-06 01:21 33.61521 133.43501 20210 ft 454 kts 102°
2026-05-06 01:21 33.61050 133.47260 20540 ft 461 kts 103°
2026-05-06 01:22 33.60569 133.51092 20911 ft 468 kts 103°
2026-05-06 01:22 33.60085 133.54919 21284 ft 474 kts 103°
2026-05-06 01:22 33.59578 133.58916 21694 ft 480 kts 103°
2026-05-06 01:22 33.59066 133.62917 22097 ft 486 kts 104°
2026-05-06 01:23 33.58548 133.66943 22517 ft 491 kts 104°
2026-05-06 01:23 33.58024 133.71018 22927 ft 497 kts 105°
2026-05-06 01:23 33.57491 133.75184 23321 ft 502 kts 105°
2026-05-06 01:23 33.56956 133.79385 23715 ft 508 kts 105°
2026-05-06 01:24 33.56417 133.83625 24052 ft 512 kts 105°
2026-05-06 01:24 33.56062 133.86409 24387 ft 513 kts 105°
2026-05-06 01:24 33.55514 133.90672 24687 ft 517 kts 105°
2026-05-06 01:24 33.54959 133.94954 25067 ft 520 kts 105°
2026-05-06 01:25 33.54394 133.99292 25497 ft 521 kts 105°
2026-05-06 01:25 33.53832 134.03584 25896 ft 523 kts 105°
2026-05-06 01:25 33.53271 134.07887 26391 ft 522 kts 105°
2026-05-06 01:25 33.52707 134.12196 26782 ft 523 kts 105°
2026-05-06 01:26 33.52141 134.16507 27122 ft 525 kts 105°
2026-05-06 01:26 33.51817 134.20905 27450 ft 533 kts 99°
2026-05-06 01:26 33.51607 134.25404 27794 ft 533 kts 99°
2026-05-06 01:26 33.51401 134.29859 28135 ft 535 kts 99°
2026-05-06 01:27 33.51191 134.34306 28432 ft 536 kts 99°
2026-05-06 01:27 33.50980 134.38771 28823 ft 536 kts 99°
2026-05-06 01:27 33.50777 134.43225 29198 ft 536 kts 99°
2026-05-06 01:27 33.50583 134.47676 29581 ft 536 kts 99°
2026-05-06 01:28 33.50394 134.52136 29964 ft 536 kts 99°
2026-05-06 01:28 33.50206 134.56590 30335 ft 535 kts 99°
2026-05-06 01:28 33.50013 134.61026 30660 ft 535 kts 99°
2026-05-06 01:28 33.49818 134.65485 31024 ft 532 kts 99°
2026-05-06 01:29 33.49626 134.69916 31419 ft 530 kts 99°
2026-05-06 01:29 33.49435 134.74366 31772 ft 530 kts 99°
2026-05-06 01:29 33.49241 134.78838 32114 ft 529 kts 99°
2026-05-06 01:29 33.49048 134.83177 32442 ft 529 kts 99°
2026-05-06 01:30 33.48846 134.87635 32809 ft 529 kts 100°
2026-05-06 01:30 33.48647 134.92030 33125 ft 529 kts 100°
2026-05-06 01:30 33.48445 134.96440 33468 ft 529 kts 100°
2026-05-06 01:30 33.48240 135.00852 33802 ft 529 kts 99°
2026-05-06 01:31 33.48038 135.05258 34090 ft 530 kts 99°
2026-05-06 01:31 33.47839 135.09659 34372 ft 530 kts 99°
2026-05-06 01:31 33.47642 135.14073 34575 ft 532 kts 99°
2026-05-06 01:31 33.47443 135.18500 34787 ft 534 kts 99°
2026-05-06 01:32 33.47238 135.23014 35031 ft 535 kts 99°
2026-05-06 01:32 33.47034 135.27464 35282 ft 536 kts 99°
2026-05-06 01:32 33.46827 135.31925 35527 ft 536 kts 99°
2026-05-06 01:32 33.46624 135.36386 35768 ft 537 kts 99°
2026-05-06 01:33 33.46434 135.40858 36010 ft 538 kts 98°
2026-05-06 01:33 33.46253 135.45345 36238 ft 539 kts 98°
2026-05-06 01:33 33.46075 135.49834 36433 ft 540 kts 98°
2026-05-06 01:33 33.45889 135.54354 36636 ft 541 kts 99°
2026-05-06 01:34 33.45696 135.58853 36857 ft 542 kts 99°
2026-05-06 01:34 33.45494 135.63428 37024 ft 544 kts 98°
2026-05-06 01:34 33.45294 135.67897 37183 ft 546 kts 98°
2026-05-06 01:34 33.45085 135.72510 37223 ft 551 kts 98°
2026-05-06 01:35 33.45315 135.81791 37222 ft 566 kts 83°
2026-05-06 01:35 33.47063 135.91018 37226 ft 569 kts 78°
2026-05-06 01:36 33.48887 136.00249 37219 ft 569 kts 79°
2026-05-06 01:36 33.50685 136.09506 37221 ft 570 kts 79°
2026-05-06 01:37 33.52474 136.18750 37231 ft 570 kts 79°
2026-05-06 01:37 33.54276 136.28021 37233 ft 571 kts 79°
2026-05-06 01:38 33.56067 136.37283 37239 ft 571 kts 79°
2026-05-06 01:38 33.57854 136.46556 37243 ft 571 kts 79°
2026-05-06 01:39 33.59645 136.55927 37245 ft 572 kts 79°
2026-05-06 01:39 33.61417 136.65229 37252 ft 572 kts 79°
2026-05-06 01:40 33.63180 136.74548 37254 ft 573 kts 79°
2026-05-06 01:40 33.64945 136.83933 37248 ft 573 kts 79°
2026-05-06 01:41 33.66699 136.93255 37249 ft 573 kts 79°
2026-05-06 01:41 33.68446 137.02599 37260 ft 573 kts 79°
2026-05-06 01:42 33.70184 137.11942 37257 ft 573 kts 79°
2026-05-06 01:42 33.71919 137.21278 37252 ft 572 kts 79°
2026-05-06 01:43 33.73639 137.30601 37253 ft 572 kts 79°
2026-05-06 01:43 33.75355 137.39964 37256 ft 572 kts 79°
2026-05-06 01:44 33.77076 137.49357 37256 ft 572 kts 79°
2026-05-06 01:44 33.78783 137.58684 37242 ft 571 kts 79°
2026-05-06 01:45 33.80202 137.66518 37263 ft 571 kts 79°
2026-05-06 01:45 33.81893 137.75865 37252 ft 571 kts 79°
2026-05-06 01:46 33.83565 137.85204 37261 ft 571 kts 79°
2026-05-06 01:46 33.85243 137.94618 37255 ft 571 kts 79°
2026-05-06 01:47 33.86915 138.03962 37269 ft 571 kts 79°
2026-05-06 01:47 33.88580 138.13317 37257 ft 571 kts 79°
2026-05-06 01:48 33.90222 138.22659 37263 ft 571 kts 79°
2026-05-06 01:48 33.92850 138.31709 37259 ft 569 kts 60°
2026-05-06 01:49 33.96585 138.40101 37257 ft 568 kts 59°
2026-05-06 01:49 34.00620 138.49187 37264 ft 569 kts 59°
2026-05-06 01:50 34.04344 138.57600 37263 ft 569 kts 59°
2026-05-06 01:50 34.08069 138.66029 37256 ft 569 kts 59°
2026-05-06 01:51 34.11816 138.74508 37265 ft 568 kts 59°
2026-05-06 01:51 34.15530 138.82935 37264 ft 568 kts 59°
2026-05-06 01:52 34.19229 138.91365 37273 ft 568 kts 59°
2026-05-06 01:52 34.22945 138.99859 37267 ft 567 kts 59°
2026-05-06 01:53 34.26035 139.06937 37266 ft 567 kts 59°
2026-05-06 01:53 34.29493 139.15497 37277 ft 568 kts 65°
2026-05-06 01:54 34.32544 139.24365 37102 ft 556 kts 65°
2026-05-06 01:54 34.34050 139.28729 36835 ft 553 kts 65°
2026-05-06 01:54 34.35529 139.33007 36201 ft 555 kts 66°
2026-05-06 01:55 34.37030 139.37350 35185 ft 563 kts 66°
2026-05-06 01:55 34.38568 139.41809 34320 ft 566 kts 67°
2026-05-06 01:55 34.40072 139.46193 33410 ft 559 kts 68°
2026-05-06 01:55 34.41577 139.50603 31728 ft 560 kts 68°
2026-05-06 01:56 34.43053 139.54930 30707 ft 550 kts 68°
2026-05-06 01:56 34.44545 139.59303 29340 ft 561 kts 68°
2026-05-06 01:56 34.46089 139.63666 28055 ft 567 kts 63°
2026-05-06 01:56 34.48085 139.67807 26952 ft 567 kts 53°
2026-05-06 01:57 34.50510 139.71517 25874 ft 557 kts 44°
2026-05-06 01:57 34.53326 139.74757 24596 ft 542 kts 34°
2026-05-06 01:57 34.56344 139.77323 23693 ft 511 kts 25°
2026-05-06 01:57 34.59328 139.79488 22994 ft 483 kts 26°
2026-05-06 01:58 34.62165 139.81583 22307 ft 475 kts 26°
2026-05-06 01:58 34.65018 139.83693 21645 ft 472 kts 25°
2026-05-06 01:58 34.67923 139.85454 20999 ft 462 kts 17°
2026-05-06 01:58 34.70984 139.86705 20376 ft 451 kts
2026-05-06 01:59 34.74008 139.87594 19795 ft 446 kts
2026-05-06 01:59 34.77018 139.88480 19183 ft 443 kts
2026-05-06 01:59 34.80039 139.89375 18613 ft 439 kts
2026-05-06 01:59 34.82987 139.90254 18017 ft 434 kts
2026-05-06 02:00 34.85943 139.91140 17486 ft 428 kts
2026-05-06 02:00 34.88818 139.92003 16988 ft 424 kts
2026-05-06 02:00 34.91672 139.92859 16479 ft 420 kts
2026-05-06 02:00 34.94571 139.93727 15999 ft 417 kts
2026-05-06 02:01 34.97385 139.94564 15528 ft 412 kts 10°
2026-05-06 02:01 35.00155 139.95386 15050 ft 408 kts 10°
2026-05-06 02:01 35.02894 139.96196 14584 ft 404 kts 11°
2026-05-06 02:01 35.05622 139.97006 14088 ft 401 kts 11°
2026-05-06 02:02 35.08348 139.97821 13418 ft 400 kts 12°
2026-05-06 02:02 35.11053 139.98634 12794 ft 398 kts 12°
2026-05-06 02:02 35.13718 139.99435 12279 ft 393 kts 13°
2026-05-06 02:02 35.16365 140.00229 11713 ft 389 kts 13°
2026-05-06 02:03 35.18993 140.01015 11195 ft 384 kts 14°
2026-05-06 02:03 35.21524 140.01771 11037 ft 369 kts 14°
2026-05-06 02:03 35.23994 140.02509 10908 ft 354 kts 14°
2026-05-06 02:03 35.26325 140.03209 10785 ft 340 kts 14°
2026-05-06 02:04 35.28571 140.03885 10659 ft 326 kts 14°
2026-05-06 02:04 35.30733 140.04532 10525 ft 314 kts 15°
2026-05-06 02:04 35.32829 140.05162 10270 ft 308 kts 14°
2026-05-06 02:04 35.34895 140.05784 10041 ft 304 kts 15°
2026-05-06 02:05 35.36940 140.06403 9851 ft 302 kts 14°
2026-05-06 02:05 35.38984 140.07021 9720 ft 301 kts 14°
2026-05-06 02:05 35.41024 140.07638 9523 ft 302 kts 14°
2026-05-06 02:05 35.42386 140.08049 9302 ft 301 kts 14°
2026-05-06 02:06 35.44419 140.08661 8953 ft 300 kts 13°
2026-05-06 02:06 35.46445 140.09268 8601 ft 299 kts 13°
2026-05-06 02:06 35.48463 140.09875 8251 ft 298 kts 13°
2026-05-06 02:06 35.50475 140.10482 7901 ft 298 kts 13°
2026-05-06 02:07 35.52506 140.11095 7546 ft 297 kts 13°
2026-05-06 02:07 35.54515 140.11703 7197 ft 296 kts 12°
2026-05-06 02:07 35.56502 140.12307 6851 ft 293 kts 12°
2026-05-06 02:07 35.58476 140.12907 6496 ft 291 kts 12°
2026-05-06 02:08 35.60418 140.13499 6218 ft 286 kts 12°
2026-05-06 02:08 35.62359 140.14089 5956 ft 282 kts 12°
2026-05-06 02:08 35.64278 140.14671 5559 ft 279 kts 12°
2026-05-06 02:08 35.66130 140.15029 5432 ft 260 kts 359°
2026-05-06 02:09 35.67872 140.14867 5288 ft 238 kts 346°
2026-05-06 02:09 35.69409 140.14300 5008 ft 230 kts 333°
2026-05-06 02:09 35.70877 140.13465 5007 ft 233 kts 332°
2026-05-06 02:09 35.72354 140.12628 5005 ft 233 kts 332°
2026-05-06 02:10 35.73850 140.11783 5007 ft 233 kts 332°
2026-05-06 02:10 35.75295 140.10967 5001 ft 233 kts 332°
2026-05-06 02:10 35.76768 140.10133 5015 ft 233 kts 332°
2026-05-06 02:10 35.78252 140.09295 5017 ft 233 kts 332°
2026-05-06 02:11 35.79734 140.08452 5015 ft 232 kts 329°
2026-05-06 02:11 35.81003 140.07288 5014 ft 227 kts 310°
2026-05-06 02:11 35.81901 140.05712 5022 ft 222 kts 292°
2026-05-06 02:11 35.82355 140.03920 5021 ft 218 kts 275°
2026-05-06 02:12 35.82349 140.02061 5022 ft 215 kts 258°
2026-05-06 02:12 35.81920 140.00367 5015 ft 199 kts 242°
2026-05-06 02:12 35.81170 139.98976 5032 ft 193 kts 227°
2026-05-06 02:12 35.80767 139.98474 5040 ft 192 kts 221°
2026-05-06 02:13 35.80367 139.98075 5038 ft 192 kts 216°
2026-05-06 02:13 35.79267 139.97125 5026 ft 192 kts 215°
2026-05-06 02:13 35.78182 139.96188 5018 ft 192 kts 215°
2026-05-06 02:13 35.77101 139.95253 4842 ft 182 kts 215°
2026-05-06 02:14 35.76074 139.94366 4648 ft 176 kts 215°
2026-05-06 02:14 35.75078 139.93505 4392 ft 175 kts 215°
2026-05-06 02:14 35.74076 139.92640 4169 ft 175 kts 215°
2026-05-06 02:14 35.73093 139.91791 3935 ft 168 kts 214°
2026-05-06 02:15 35.72146 139.90973 3717 ft 164 kts 214°
2026-05-06 02:15 35.71199 139.90156 3497 ft 161 kts 214°
2026-05-06 02:15 35.70329 139.89405 3292 ft 145 kts 214°
2026-05-06 02:15 35.69542 139.88727 3113 ft 138 kts 214°
2026-05-06 02:16 35.68749 139.88043 2919 ft 135 kts 214°
2026-05-06 02:16 35.67993 139.87391 2750 ft 134 kts 214°
2026-05-06 02:16 35.67215 139.86720 2547 ft 133 kts 213°
2026-05-06 02:16 35.66462 139.86072 2383 ft 133 kts 213°
2026-05-06 02:17 35.65703 139.85418 2210 ft 133 kts 213°
2026-05-06 02:17 35.64943 139.84764 2027 ft 134 kts 213°
2026-05-06 02:17 35.64168 139.84096 1843 ft 133 kts 213°
2026-05-06 02:17 35.63422 139.83454 1678 ft 132 kts 213°
2026-05-06 02:18 35.62671 139.82807 1487 ft 132 kts 213°
2026-05-06 02:18 35.61924 139.82165 1311 ft 131 kts 213°
2026-05-06 02:18 35.61179 139.81523 1143 ft 131 kts 213°
2026-05-06 02:18 35.60387 139.80843 957 ft 132 kts 214°
2026-05-06 02:19 35.59628 139.80190 757 ft 133 kts 214°
2026-05-06 02:19 35.58915 139.79577 602 ft 132 kts 214°
2026-05-06 02:19 35.58168 139.78935 413 ft 131 kts 214°
2026-05-06 02:19 35.57410 139.78284 251 ft 131 kts 214°
2026-05-06 02:20 35.55978 139.77054 27 ft 100 kts 212°
2026-05-06 02:20 35.55600 139.76735 28 ft 44 kts 216°
2026-05-06 02:20 35.55435 139.76642 28 ft 24 kts 194°